When you browse on this site, cookies collect data to enhance your experience and personalize the content and advertising you see.
Visit our Privacy Policy to learn more. By continuing to use the site, you agree to this use of cookies and data.

Hourly Weather Carquefou

Today, 18 September, Friday

Time Temperature Precipitation Wind Pressure Humidity
00:00 +21°C° 0 mm 7 mps 760 mmHg 47%
01:00 +20°C° 0 mm 7 mps 760 mmHg 49%
02:00 +20°C° 0 mm 7 mps 759 mmHg 51%
03:00 +20°C° 0 mm 7 mps 759 mmHg 52%
04:00 +18°C° 0 mm 7 mps 759 mmHg 57%
05:00 +19°C° 0 mm 6 mps 759 mmHg 61%
06:00 +17°C° 0 mm 6 mps 758 mmHg 65%
07:00 +20°C° 0 mm 7 mps 758 mmHg 63%
08:00 +21°C° 0 mm 7 mps 758 mmHg 62%
09:00 +23°C° 0 mm 7 mps 758 mmHg 60%
10:00 +27°C° 0 mm 6 mps 758 mmHg 53%
11:00 +29°C° 0 mm 6 mps 758 mmHg 46%
12:00 +32°C° 0 mm 5 mps 758 mmHg 39%
13:00 +32°C° 0 mm 5 mps 758 mmHg 41%
14:00 +30°C° 0 mm 5 mps 757 mmHg 43%
15:00 +30°C° 0 mm 5 mps 757 mmHg 45%
16:00 +28°C° 0 mm 4 mps 757 mmHg 50%
17:00 +27°C° 0 mm 3 mps 757 mmHg 56%
18:00 +25°C° 0 mm 2 mps 757 mmHg 61%
19:00 +24°C° 0.2 mm 2 mps 758 mmHg 66%
20:00 +22°C° 0.2 mm 3 mps 758 mmHg 70%
21:00 +22°C° 0.2 mm 3 mps 758 mmHg 75%
22:00 +21°C° 0.2 mm 3 mps 758 mmHg 79%
23:00 +20°C° 0.2 mm 3 mps 758 mmHg 83%

Tomorrow, 19 September, Saturday

Time Temperature Precipitation Wind Pressure Humidity
00:00 +19°C° 0.2 mm 3 mps 758 mmHg 87%
01:00 +19°C° 0 mm 3 mps 757 mmHg 88%
02:00 +19°C° 0 mm 3 mps 757 mmHg 89%
03:00 +19°C° 0 mm 2 mps 757 mmHg 90%
04:00 +19°C° 0.1 mm 2 mps 757 mmHg 92%
05:00 +18°C° 0.1 mm 2 mps 757 mmHg 93%
06:00 +18°C° 0.1 mm 2 mps 757 mmHg 95%
07:00 +20°C° 0.1 mm 1 mps 757 mmHg 90%
08:00 +21°C° 0.1 mm 1 mps 757 mmHg 85%
09:00 +22°C° 0.1 mm 1 mps 757 mmHg 81%
10:00 +23°C° 0.9 mm 1 mps 757 mmHg 79%
11:00 +23°C° 0.9 mm 2 mps 756 mmHg 77%
12:00 +24°C° 0.9 mm 2 mps 756 mmHg 76%
13:00 +22°C° 1.1 mm 3 mps 756 mmHg 79%
14:00 +21°C° 1.1 mm 3 mps 756 mmHg 82%
15:00 +20°C° 1.1 mm 4 mps 756 mmHg 86%
16:00 +20°C° 0.1 mm 3 mps 756 mmHg 88%
17:00 +20°C° 0.1 mm 2 mps 756 mmHg 90%
18:00 +19°C° 0.1 mm 2 mps 756 mmHg 92%
19:00 +19°C° 0 mm 2 mps 756 mmHg 93%
20:00 +18°C° 0 mm 2 mps 757 mmHg 95%
21:00 +19°C° 0 mm 1 mps 757 mmHg 96%
22:00 +18°C° 0 mm 1 mps 757 mmHg 96%
23:00 +18°C° 0 mm 1 mps 757 mmHg 96%

Day after tomorrow, 20 September, Sunday

Time Temperature Precipitation Wind Pressure Humidity
00:00 +18°C° 0 mm 1 mps 758 mmHg 96%
01:00 +18°C° 0 mm 1 mps 758 mmHg 96%
02:00 +18°C° 0 mm 1 mps 758 mmHg 95%
03:00 +18°C° 0 mm 1 mps 758 mmHg 95%
04:00 +18°C° 0.1 mm 1 mps 758 mmHg 95%
05:00 +16°C° 0.1 mm 0 mps 758 mmHg 95%
06:00 +15°C° 0.1 mm 0 mps 758 mmHg 96%
07:00 +17°C° 0.1 mm 0 mps 758 mmHg 90%
08:00 +19°C° 0.1 mm 0 mps 759 mmHg 84%
09:00 +20°C° 0.1 mm 0 mps 759 mmHg 78%
10:00 +21°C° 0.4 mm 0 mps 759 mmHg 73%
11:00 +24°C° 0.4 mm 1 mps 759 mmHg 67%
12:00 +26°C° 0.4 mm 1 mps 759 mmHg 62%
13:00 +25°C° 0.5 mm 2 mps 759 mmHg 62%
14:00 +25°C° 0.5 mm 2 mps 759 mmHg 62%
15:00 +25°C° 0.5 mm 3 mps 758 mmHg 62%
16:00 +24°C° 0.2 mm 3 mps 759 mmHg 69%
17:00 +22°C° 0.2 mm 3 mps 759 mmHg 76%
18:00 +20°C° 0.2 mm 3 mps 759 mmHg 83%
19:00 +19°C° 0 mm 3 mps 759 mmHg 86%
20:00 +19°C° 0 mm 3 mps 759 mmHg 89%
21:00 +18°C° 0 mm 2 mps 760 mmHg 92%
22:00 +18°C° 0 mm 2 mps 759 mmHg 92%
23:00 +17°C° 0 mm 2 mps 759 mmHg 93%

21 September, Monday

Time Temperature Precipitation Wind Pressure Humidity
00:00 +17°C° 0 mm 2 mps 759 mmHg 93%
01:00 +18°C° 0.1 mm 1 mps 759 mmHg 93%
02:00 +18°C° 0.1 mm 1 mps 759 mmHg 93%
03:00 +18°C° 0.1 mm 1 mps 759 mmHg 93%
04:00 +18°C° 0.2 mm 1 mps 759 mmHg 94%
05:00 +18°C° 0.2 mm 1 mps 759 mmHg 94%
06:00 +18°C° 0.2 mm 1 mps 759 mmHg 94%
07:00 +19°C° 0.2 mm 1 mps 759 mmHg 89%
08:00 +20°C° 0.2 mm 2 mps 759 mmHg 84%
09:00 +21°C° 0.2 mm 2 mps 760 mmHg 78%
10:00 +24°C° 0.1 mm 2 mps 759 mmHg 72%
11:00 +25°C° 0.1 mm 2 mps 759 mmHg 65%
12:00 +27°C° 0.1 mm 2 mps 759 mmHg 58%
13:00 +27°C° 0.3 mm 2 mps 759 mmHg 56%
14:00 +27°C° 0.3 mm 2 mps 758 mmHg 53%
15:00 +28°C° 0.3 mm 2 mps 758 mmHg 51%
16:00 +26°C° 0.1 mm 2 mps 758 mmHg 60%
17:00 +24°C° 0.1 mm 3 mps 758 mmHg 69%
18:00 +21°C° 0.1 mm 4 mps 758 mmHg 78%
19:00 +20°C° 0.1 mm 3 mps 758 mmHg 81%
20:00 +19°C° 0.1 mm 2 mps 759 mmHg 84%
21:00 +18°C° 0.1 mm 2 mps 759 mmHg 87%
22:00 +18°C° 0 mm 2 mps 759 mmHg 85%
23:00 +18°C° 0 mm 1 mps 758 mmHg 84%

22 September, Tuesday

Time Temperature Precipitation Wind Pressure Humidity
00:00 +18°C° 0 mm 1 mps 758 mmHg 82%
01:00 +16°C° 0 mm 1 mps 758 mmHg 83%
02:00 +16°C° 0 mm 1 mps 758 mmHg 83%
03:00 +16°C° 0 mm 1 mps 757 mmHg 84%
04:00 +15°C° 0 mm 1 mps 757 mmHg 85%
05:00 +15°C° 0 mm 1 mps 758 mmHg 87%
06:00 +15°C° 0 mm 1 mps 758 mmHg 88%
07:00 +18°C° 0 mm 1 mps 758 mmHg 81%
08:00 +18°C° 0 mm 2 mps 758 mmHg 74%
09:00 +20°C° 0 mm 2 mps 758 mmHg 67%
10:00 +21°C° 0 mm 2 mps 758 mmHg 65%
11:00 +23°C° 0 mm 2 mps 758 mmHg 63%
12:00 +24°C° 0 mm 2 mps 758 mmHg 61%
13:00 +24°C° 0 mm 3 mps 757 mmHg 60%
14:00 +23°C° 0 mm 4 mps 757 mmHg 58%
15:00 +23°C° 0 mm 5 mps 757 mmHg 56%
16:00 +22°C° 0 mm 4 mps 757 mmHg 64%
17:00 +20°C° 0 mm 4 mps 757 mmHg 71%
18:00 +19°C° 0 mm 4 mps 757 mmHg 78%
19:00 +19°C° 0 mm 3 mps 757 mmHg 80%
20:00 +18°C° 0 mm 3 mps 757 mmHg 83%
21:00 +18°C° 0 mm 3 mps 758 mmHg 85%
22:00 +17°C° 0.4 mm 3 mps 757 mmHg 87%
23:00 +17°C° 0.4 mm 2 mps 757 mmHg 89%

23 September, Wednesday

Time Temperature Precipitation Wind Pressure Humidity
00:00 +16°C° 0.4 mm 2 mps 757 mmHg 91%
01:00 +16°C° 1.2 mm 2 mps 757 mmHg 92%
02:00 +15°C° 1.2 mm 2 mps 757 mmHg 93%
03:00 +15°C° 1.2 mm 1 mps 756 mmHg 95%
04:00 +15°C° 0.1 mm 1 mps 756 mmHg 94%
05:00 +15°C° 0.1 mm 2 mps 756 mmHg 94%
06:00 +16°C° 0.1 mm 2 mps 756 mmHg 94%
07:00 +16°C° 0.1 mm 3 mps 756 mmHg 92%
08:00 +17°C° 0.1 mm 3 mps 756 mmHg 90%
09:00 +17°C° 0.1 mm 4 mps 756 mmHg 89%
10:00 +19°C° 0.1 mm 5 mps 755 mmHg 82%
11:00 +20°C° 0.1 mm 6 mps 755 mmHg 75%
12:00 +21°C° 0.1 mm 8 mps 755 mmHg 69%
13:00 +21°C° 0 mm 7 mps 755 mmHg 66%
14:00 +20°C° 0 mm 7 mps 754 mmHg 63%
15:00 +18°C° 0 mm 7 mps 754 mmHg 60%
16:00 +17°C° 0 mm 6 mps 754 mmHg 62%
17:00 +15°C° 0 mm 6 mps 754 mmHg 63%
18:00 +14°C° 0 mm 5 mps 754 mmHg 64%
19:00 +14°C° 0 mm 5 mps 754 mmHg 66%
20:00 +13°C° 0 mm 4 mps 754 mmHg 67%
21:00 +13°C° 0 mm 4 mps 754 mmHg 68%
22:00 +14°C° 0 mm 4 mps 754 mmHg 68%
23:00 +14°C° 0 mm 5 mps 753 mmHg 68%
Show more